Карточка аэропорта USTR

Внимание!
Информация на этой странице в стадии наполнения.
Если вы не увидели какой-то информации, или заметили неточность - пожалуйста сообщите нам!
Спасибо!
Команда RU-STAFF
Название аэропортаРощино
Название аэропорта (англ.)Roshschino
Превышение378 ft. (115.2 m.)
Координаты57°10.098', 65°19.002'
Высота перехода700m
Эшелон переходаFL040
Коды ответчика5101-5137
Зона ОрВДТюмень РПИ (USTV)
Данные METARUSTR 251200Z 06007MPS 9999 FEW046 09/02 Q1017 R03/CLRD65 R30/CLRD65 TEMPO 07009G14MPS
Проноз погоды (TAF)USTR 251037Z 2512/2612 05007G14MPS 9999 SCT020CB TEMPO 2512/2612 08014MPS 3100 -SHRA FEW005 BKN016CB
NOTAMshow/hide NOTAM
AWOS   TABLE

Информация о ВПП

ВПП Длина ВПП (м.) Покрытие Курс ВПП Частота ILS
033003Асфальтобетон34108.3
122704Асфальтобетон121 
213003Асфальтобетон214110.7
302704Асфальтобетон301 

Диспетчерские позиции

Позывной Наименование органа УВД Частота
USTR_TWRТюмень-Старт118.200
USTR_R_APPТюмень-Круг126.100
USTR_GNDТюмень-Руление119.000



Спутниковое изображение